Seatac, Washington, United States
Lat: 47.45N, Lon: 122.32W
Wx Zone: WAZ508
Local Info
Past Weather Observations for Today

NOTE: This archive is for the closest National Weather Service station to Seatac. Information may differ from the station used for current weather conditions.

Click here for Long-term Archive

Time Weather Temperature Dewpoint Humidity Pressure Winds Precip Visibility
22:53
Clear
72°F / 22°C 48°F / 9°C 44% 30.04 in
(1017 mb)
NE 9.2 mph
(NE 15 kph)
- 10SM
21:53
Clear
73°F / 23°C 46°F / 8°C 38% 30.04 in
(1017 mb)
NE 11.5 mph
(NE 19 kph)
- 10SM
20:53
Clear
75°F / 24°C 48°F / 9°C 39% 30.04 in
(1017 mb)
NE 6.9 mph
(NE 11 kph)
- 10SM
19:53
Partly Cloudy
77°F / 25°C 46°F / 8°C 34% 30.04 in
(1017 mb)
N 9.2 mph
(N 15 kph)
- 10SM
18:53
Partly Cloudy
81°F / 27°C 46°F / 8°C 30% 30.04 in
(1017 mb)
N 9.2 mph
(N 15 kph)
- 10SM
17:53
Partly Cloudy
82°F / 28°C 52°F / 11°C 35% 30.04 in
(1017 mb)
N 11.5 mph
(N 19 kph)
- 10SM
16:53
Partly Cloudy
84°F / 29°C 52°F / 11°C 33% 30.04 in
(1017 mb)
N 9.2 mph
(N 15 kph)
- 10SM
14:53
Partly Cloudy
88°F / 31°C 50°F / 10°C 27% 30.06 in
(1018 mb)
NNW 11.5 mph
(NNW 19 kph)
- 10SM
13:53
Partly Cloudy
84°F / 29°C 52°F / 11°C 33% 30.09 in
(1019 mb)
NNW 11.5 mph
(NNW 19 kph)
- 10SM
12:53
Partly Cloudy
81°F / 27°C 55°F / 13°C 42% 30.09 in
(1019 mb)
WNW 6.9 mph
(WNW 11 kph)
- 10SM
11:53
Partly Cloudy
81°F / 27°C 54°F / 12°C 39% 30.09 in
(1019 mb)
NW 8.1 mph
(NW 13 kph)
- 10SM
10:53
Partly Cloudy
79°F / 26°C 54°F / 12°C 42% 30.12 in
(1020 mb)
N 8.1 mph
(N 13 kph)
- 10SM
09:53
Partly Cloudy
75°F / 24°C 52°F / 11°C 44% 30.12 in
(1020 mb)
N 11.5 mph
(N 19 kph)
- 10SM
08:53
Partly Cloudy
73°F / 23°C 48°F / 9°C 41% 30.12 in
(1020 mb)
N 10.4 mph
(N 17 kph)
- 10SM
07:53
Partly Cloudy
70°F / 21°C 48°F / 9°C 46% 30.12 in
(1020 mb)
NNE 6.9 mph
(NNE 11 kph)
- 10SM
06:53
Partly Cloudy
68°F / 20°C 48°F / 9°C 49% 30.12 in
(1020 mb)
NNE 8.1 mph
(NNE 13 kph)
- 10SM
05:53
Partly Cloudy
66°F / 19°C 46°F / 8°C 49% 30.12 in
(1020 mb)
NE 6.9 mph
(NE 11 kph)
- 10SM
04:53
Partly Cloudy
64°F / 18°C 46°F / 8°C 52% 30.12 in
(1020 mb)
NE 5.8 mph
(NE 9 kph)
- 10SM
03:53
Partly Cloudy
64°F / 18°C 46°F / 8°C 52% 30.12 in
(1020 mb)
NE 6.9 mph
(NE 11 kph)
- 10SM
02:53
Partly Cloudy
66°F / 19°C 45°F / 7°C 46% 30.12 in
(1020 mb)
NNE 10.4 mph
(NNE 17 kph)
- 10SM
01:53
Partly Cloudy
66°F / 19°C 45°F / 7°C 46% 30.12 in
(1020 mb)
NE 10.4 mph
(NE 17 kph)
- 10SM
00:53
Clear
66°F / 19°C 45°F / 7°C 46% 30.12 in
(1020 mb)
NE 10.4 mph
(NE 17 kph)
- 10SM
Time Weather Temperature Dewpoint Humidity Pressure Winds Precip Visibility


Weather for websites

WeatherForYou.com, LLC is not responsible for any damages or problems caused by this service. Current weather conditions are obtained from the closest station including government and personal stations which may have varying degrees of accuracy. Weather forecasts are derived from the NOAA NDFD. Like all things, this site belongs to Jesus Christ... He just trusts me to maintain it. If you have any questions or comments email webmaster@weatherforyou.com

Copyright © 2014, WeatherForYou.com LLC. All rights reserved.